Location: ?????oe
(44.4874°N, 135.7046°E)
Time: 11:10:10
(UTC+00:00)

Cosmos 1626 Rocket - Pass Details

Date: 13 December 2025
Orbit: 596 x 624 km, 82.5° (Epoch: 22 January)

Event Time Altitude Azimuth Distance (km) Brightness Sun altitude
Rises 21:04:30 0° 208° (SSW) 2,890 6.9 -13.9°
Reaches altitude 10° 21:06:52 10° 217° (SW) 1,986 6.0 -13.5°
Maximum altitude 21:10:56 36° 284° (WNW) 982 4.1 -12.8°
Drops below altitude 10° 21:15:01 10° 352° (N) 1,987 5.9 -12.1°
Sets 21:17:24 0° 1° (N) 2,892 6.8 -11.7°
